Time,TemperatureF,DewpointF,PressureIn,WindDirection,WindDirectionDegrees,WindSpeedMPH,WindSpeedGustMPH,Humidity,HourlyPrecipIn,Conditions,Clouds,dailyrainin,SoftwareType,DateUTC
2013-08-15 00:00:00,61.0,58.7,30.03,North,32767,0.0,0.0,92,0.00,,,0.00,Wunderground v.1.15,2013-08-15 04:00:00,
2013-08-15 00:05:00,61.0,58.7,30.03,North,360,0.0,0.0,92,0.00,,,0.00,Wunderground v.1.15,2013-08-15 04:05:00,
2013-08-15 00:14:00,61.0,59.0,30.02,North,32767,0.0,0.0,93,0.00,,,0.00,Wunderground v.1.15,2013-08-15 04:14:00,
2013-08-15 00:20:00,60.9,58.3,30.02,North,32767,0.0,0.0,91,0.00,,,0.00,Wunderground v.1.15,2013-08-15 04:20:00,
2013-08-15 00:24:00,60.8,58.2,30.02,North,360,0.0,0.0,91,0.00,,,0.00,Wunderground v.1.15,2013-08-15 04:24:00,
2013-08-15 00:29:00,60.9,58.3,30.02,North,32767,0.0,0.0,91,0.00,,,0.00,Wunderground v.1.15,2013-08-15 04:29:00,
2013-08-15 00:35:00,60.9,58.3,30.02,North,360,0.0,0.0,91,0.00,,,0.00,Wunderground v.1.15,2013-08-15 04:35:00,
2013-08-15 00:40:00,60.9,57.9,30.03,North,32767,0.0,0.0,90,0.00,,,0.00,Wunderground v.1.15,2013-08-15 04:40:00,
2013-08-15 00:44:00,60.9,57.9,30.02,North,32767,0.0,0.0,90,0.00,,,0.00,Wunderground v.1.15,2013-08-15 04:44:00,
2013-08-15 00:49:00,60.8,57.8,30.02,North,32767,0.0,0.0,90,0.00,,,0.00,Wunderground v.1.15,2013-08-15 04:49:00,
2013-08-15 00:59:00,60.7,58.1,30.03,North,360,0.0,0.0,91,0.00,,,0.00,Wunderground v.1.15,2013-08-15 04:59:00,
2013-08-15 01:05:00,60.7,58.1,30.03,North,32767,0.0,0.0,91,0.00,,,0.00,Wunderground v.1.15,2013-08-15 05:05:00,
2013-08-15 01:15:00,60.7,58.4,30.03,North,32767,0.0,0.0,92,0.00,,,0.00,Wunderground v.1.15,2013-08-15 05:15:00,
2013-08-15 01:20:00,60.8,58.5,30.02,North,32767,0.0,0.0,92,0.00,,,0.00,Wunderground v.1.15,2013-08-15 05:20:00,
2013-08-15 01:29:00,60.6,58.3,30.02,North,32767,0.0,0.0,92,0.00,,,0.00,Wunderground v.1.15,2013-08-15 05:29:00,
2013-08-15 01:39:00,60.4,58.1,30.02,North,360,0.0,0.0,92,0.00,,,0.00,Wunderground v.1.15,2013-08-15 05:39:00,
2013-08-15 01:45:00,60.3,58.0,30.02,North,360,0.0,0.0,92,0.00,,,0.00,Wunderground v.1.15,2013-08-15 05:45:00,
2013-08-15 01:54:00,60.3,58.0,30.02,North,360,0.0,0.0,92,0.00,,,0.00,Wunderground v.1.15,2013-08-15 05:54:00,
2013-08-15 02:05:00,60.3,58.0,30.02,North,32767,0.0,0.0,92,0.00,,,0.00,Wunderground v.1.15,2013-08-15 06:05:00,
2013-08-15 02:15:00,60.0,57.7,30.02,North,32767,0.0,0.0,92,0.00,,,0.00,Wunderground v.1.15,2013-08-15 06:15:00,
2013-08-15 02:24:00,59.9,57.6,30.02,North,32767,0.0,0.0,92,0.00,,,0.00,Wunderground v.1.15,2013-08-15 06:24:00,
2013-08-15 02:29:00,59.8,57.8,30.02,North,32767,0.0,0.0,93,0.00,,,0.00,Wunderground v.1.15,2013-08-15 06:29:00,
2013-08-15 02:35:00,59.7,57.7,30.01,North,360,0.0,0.0,93,0.00,,,0.00,Wunderground v.1.15,2013-08-15 06:35:00,
2013-08-15 02:44:00,59.6,57.6,30.01,North,32767,0.0,0.0,93,0.00,,,0.00,Wunderground v.1.15,2013-08-15 06:44:00,
2013-08-15 02:54:00,59.5,57.8,30.01,North,32767,0.0,0.0,94,0.00,,,0.00,Wunderground v.1.15,2013-08-15 06:54:00,
2013-08-15 03:00:00,59.4,57.7,30.02,North,360,0.0,0.0,94,0.00,,,0.00,Wunderground v.1.15,2013-08-15 07:00:00,
2013-08-15 03:05:00,59.2,57.5,30.01,North,32767,0.0,0.0,94,0.00,,,0.00,Wunderground v.1.15,2013-08-15 07:05:00,
2013-08-15 03:14:00,59.0,57.6,30.01,North,360,0.0,0.0,95,0.00,,,0.00,Wunderground v.1.15,2013-08-15 07:14:00,
2013-08-15 03:19:00,59.0,57.6,30.01,North,360,0.0,0.0,95,0.00,,,0.00,Wunderground v.1.15,2013-08-15 07:19:00,
2013-08-15 03:24:00,59.0,57.6,30.01,North,360,0.0,0.0,95,0.00,,,0.00,Wunderground v.1.15,2013-08-15 07:24:00,
2013-08-15 03:34:00,59.1,58.0,30.02,North,360,0.0,0.0,96,0.00,,,0.00,Wunderground v.1.15,2013-08-15 07:34:00,
2013-08-15 03:44:00,59.0,57.9,30.02,North,32767,0.0,0.0,96,0.00,,,0.00,Wunderground v.1.15,2013-08-15 07:44:00,
2013-08-15 03:49:00,59.0,57.9,30.02,North,32767,0.0,0.0,96,0.00,,,0.00,Wunderground v.1.15,2013-08-15 07:49:00,
2013-08-15 03:59:00,59.0,57.9,30.01,North,32767,0.0,0.0,96,0.00,,,0.00,Wunderground v.1.15,2013-08-15 07:59:00,
2013-08-15 04:05:00,59.0,57.9,30.02,North,32767,0.0,0.0,96,0.00,,,0.00,Wunderground v.1.15,2013-08-15 08:05:00,
2013-08-15 04:14:00,59.0,57.9,30.02,North,32767,0.0,0.0,96,0.00,,,0.00,Wunderground v.1.15,2013-08-15 08:14:00,
2013-08-15 04:19:00,58.8,57.4,30.02,North,32767,0.0,0.0,95,0.00,,,0.00,Wunderground v.1.15,2013-08-15 08:19:00,
2013-08-15 04:29:00,58.2,56.5,30.02,North,32767,0.0,0.0,94,0.00,,,0.00,Wunderground v.1.15,2013-08-15 08:29:00,
2013-08-15 04:34:00,58.1,56.1,30.02,North,32767,0.0,0.0,93,0.00,,,0.00,Wunderground v.1.15,2013-08-15 08:34:00,
2013-08-15 04:39:00,58.0,56.0,30.02,North,360,0.0,0.0,93,0.00,,,0.00,Wunderground v.1.15,2013-08-15 08:39:00,
2013-08-15 04:49:00,57.8,55.8,30.03,North,360,0.0,0.0,93,0.00,,,0.00,Wunderground v.1.15,2013-08-15 08:49:00,
2013-08-15 04:59:00,57.6,55.6,30.03,North,32767,0.0,0.0,93,0.00,,,0.00,Wunderground v.1.15,2013-08-15 08:59:00,
2013-08-15 05:05:00,57.4,55.4,30.03,North,32767,0.0,0.0,93,0.00,,,0.00,Wunderground v.1.15,2013-08-15 09:05:00,
2013-08-15 05:14:00,57.3,55.3,30.02,North,360,0.0,0.0,93,0.00,,,0.00,Wunderground v.1.15,2013-08-15 09:14:00,
2013-08-15 05:19:00,57.2,55.2,30.03,North,360,0.0,0.0,93,0.00,,,0.00,Wunderground v.1.15,2013-08-15 09:19:00,
2013-08-15 05:24:00,57.1,55.1,30.03,North,360,0.0,0.0,93,0.00,,,0.00,Wunderground v.1.15,2013-08-15 09:24:00,
2013-08-15 05:34:00,56.9,54.9,30.03,North,32767,0.0,0.0,93,0.00,,,0.00,Wunderground v.1.15,2013-08-15 09:34:00,
2013-08-15 05:40:00,56.7,54.4,30.03,North,32767,0.0,0.0,92,0.00,,,0.00,Wunderground v.1.15,2013-08-15 09:40:00,
2013-08-15 05:49:00,56.6,54.6,30.03,North,32767,0.0,0.0,93,0.00,,,0.00,Wunderground v.1.15,2013-08-15 09:49:00,
2013-08-15 05:59:00,56.6,54.6,30.03,North,32767,0.0,0.0,93,0.00,,,0.00,Wunderground v.1.15,2013-08-15 09:59:00,
2013-08-15 06:05:00,56.6,54.6,30.03,North,360,0.0,0.0,93,0.00,,,0.00,Wunderground v.1.15,2013-08-15 10:05:00,
2013-08-15 06:14:00,56.6,54.6,30.04,North,32767,0.0,0.0,93,0.00,,,0.00,Wunderground v.1.15,2013-08-15 10:14:00,
2013-08-15 06:24:00,56.8,54.8,30.03,North,360,0.0,0.0,93,0.00,,,0.00,Wunderground v.1.15,2013-08-15 10:24:00,
2013-08-15 06:34:00,57.0,55.0,30.03,North,360,0.0,0.0,93,0.00,,,0.00,Wunderground v.1.15,2013-08-15 10:34:00,
2013-08-15 06:39:00,57.0,54.7,30.03,North,32767,0.0,0.0,92,0.00,,,0.00,Wunderground v.1.15,2013-08-15 10:39:00,
2013-08-15 06:44:00,57.1,54.8,30.03,North,32767,0.0,0.0,92,0.00,,,0.00,Wunderground v.1.15,2013-08-15 10:44:00,
2013-08-15 06:54:00,57.2,54.9,30.04,North,32767,0.0,0.0,92,0.00,,,0.00,Wunderground v.1.15,2013-08-15 10:54:00,
2013-08-15 06:59:00,57.1,54.8,30.04,North,360,0.0,0.0,92,0.00,,,0.00,Wunderground v.1.15,2013-08-15 10:59:00,
2013-08-15 07:04:00,57.1,54.8,30.04,North,32767,0.0,0.0,92,0.00,,,0.00,Wunderground v.1.15,2013-08-15 11:04:00,
2013-08-15 07:14:00,57.0,54.7,30.05,North,32767,0.0,0.0,92,0.00,,,0.00,Wunderground v.1.15,2013-08-15 11:14:00,
2013-08-15 07:24:00,56.8,54.5,30.05,North,32767,0.0,0.0,92,0.00,,,0.00,Wunderground v.1.15,2013-08-15 11:24:00,
2013-08-15 07:34:00,56.7,54.4,30.05,North,32767,0.0,0.0,92,0.00,,,0.00,Wunderground v.1.15,2013-08-15 11:34:00,
2013-08-15 07:44:00,56.8,54.8,30.05,North,360,0.0,0.0,93,0.00,,,0.00,Wunderground v.1.15,2013-08-15 11:44:00,
2013-08-15 07:54:00,56.9,54.9,30.06,North,32767,0.0,0.0,93,0.00,,,0.00,Wunderground v.1.15,2013-08-15 11:54:00,
2013-08-15 07:59:00,57.0,55.0,30.06,North,32767,0.0,0.0,93,0.00,,,0.00,Wunderground v.1.15,2013-08-15 11:59:00,
2013-08-15 08:05:00,57.1,55.1,30.06,North,32767,0.0,0.0,93,0.00,,,0.00,Wunderground v.1.15,2013-08-15 12:05:00,
2013-08-15 08:14:00,57.2,55.2,30.07,North,360,0.0,0.0,93,0.00,,,0.00,Wunderground v.1.15,2013-08-15 12:14:00,
2013-08-15 08:19:00,57.4,55.4,30.07,North,360,0.0,0.0,93,0.00,,,0.00,Wunderground v.1.15,2013-08-15 12:19:00,
2013-08-15 08:24:00,57.5,55.5,30.07,North,360,0.0,0.0,93,0.00,,,0.00,Wunderground v.1.15,2013-08-15 12:24:00,
2013-08-15 08:34:00,58.0,56.0,30.07,North,360,0.0,0.0,93,0.00,,,0.00,Wunderground v.1.15,2013-08-15 12:34:00,
2013-08-15 08:39:00,58.1,56.1,30.08,North,32767,0.0,0.0,93,0.00,,,0.00,Wunderground v.1.15,2013-08-15 12:39:00,
2013-08-15 08:49:00,58.3,56.0,30.08,North,360,0.0,0.0,92,0.00,,,0.00,Wunderground v.1.15,2013-08-15 12:49:00,
2013-08-15 08:54:00,58.4,55.8,30.08,North,32767,0.0,0.0,91,0.00,,,0.00,Wunderground v.1.15,2013-08-15 12:54:00,
2013-08-15 08:59:00,58.4,55.5,30.08,North,32767,0.0,0.0,90,0.00,,,0.00,Wunderground v.1.15,2013-08-15 12:59:00,
2013-08-15 09:05:00,58.4,55.5,30.08,North,32767,0.0,0.0,90,0.00,,,0.00,Wunderground v.1.15,2013-08-15 13:05:00,
2013-08-15 09:14:00,58.6,55.7,30.08,North,32767,0.0,0.0,90,0.00,,,0.00,Wunderground v.1.15,2013-08-15 13:14:00,
2013-08-15 09:19:00,58.7,55.8,30.08,North,32767,0.0,0.0,90,0.00,,,0.00,Wunderground v.1.15,2013-08-15 13:19:00,
2013-08-15 09:29:00,59.0,56.1,30.08,North,360,0.0,0.0,90,0.00,,,0.00,Wunderground v.1.15,2013-08-15 13:29:00,
2013-08-15 09:39:00,59.0,55.8,30.08,North,32767,0.0,0.0,89,0.00,,,0.00,Wunderground v.1.15,2013-08-15 13:39:00,
2013-08-15 09:49:00,59.1,55.9,30.08,North,360,0.0,0.0,89,0.00,,,0.00,Wunderground v.1.15,2013-08-15 13:49:00,
2013-08-15 09:54:00,59.2,56.0,30.08,North,360,0.0,0.0,89,0.00,,,0.00,Wunderground v.1.15,2013-08-15 13:54:00,
2013-08-15 10:05:00,59.2,55.6,30.09,North,360,0.0,0.0,88,0.00,,,0.00,Wunderground v.1.15,2013-08-15 14:05:00,
2013-08-15 10:19:00,59.3,55.7,30.09,North,32767,0.0,0.0,88,0.00,,,0.00,Wunderground v.1.15,2013-08-15 14:19:00,
2013-08-15 10:29:00,59.0,55.4,30.09,North,32767,0.0,0.0,88,0.00,,,0.00,Wunderground v.1.15,2013-08-15 14:29:00,
2013-08-15 10:34:00,59.0,55.4,30.09,North,360,0.0,0.0,88,0.00,,,0.00,Wunderground v.1.15,2013-08-15 14:34:00,
2013-08-15 10:44:00,59.0,55.1,30.10,North,360,0.0,0.0,87,0.00,,,0.00,Wunderground v.1.15,2013-08-15 14:44:00,
2013-08-15 10:54:00,59.3,55.7,30.10,North,32767,0.0,0.0,88,0.00,,,0.00,Wunderground v.1.15,2013-08-15 14:54:00,
2013-08-15 11:05:00,60.4,56.2,30.09,North,360,0.0,0.0,86,0.00,,,0.00,Wunderground v.1.15,2013-08-15 15:05:00,
2013-08-15 11:14:00,61.1,55.9,30.09,North,360,0.0,0.0,83,0.00,,,0.00,Wunderground v.1.15,2013-08-15 15:14:00,
2013-08-15 11:20:00,61.4,56.8,30.09,North,32767,0.0,0.0,85,0.00,,,0.00,Wunderground v.1.15,2013-08-15 15:20:00,
2013-08-15 11:29:00,61.9,56.7,30.09,North,32767,0.0,0.0,83,0.00,,,0.00,Wunderground v.1.15,2013-08-15 15:29:00,
2013-08-15 11:39:00,62.5,56.9,30.08,North,360,0.0,0.0,82,0.00,,,0.00,Wunderground v.1.15,2013-08-15 15:39:00,
2013-08-15 11:49:00,63.2,58.3,30.08,North,32767,0.0,0.0,84,0.00,,,0.00,Wunderground v.1.15,2013-08-15 15:49:00,
2013-08-15 11:59:00,64.0,58.1,30.09,North,32767,0.0,0.0,81,0.00,,,0.00,Wunderground v.1.15,2013-08-15 15:59:00,
2013-08-15 12:05:00,63.4,57.1,30.10,North,32767,0.0,0.0,80,0.00,,,0.00,Wunderground v.1.15,2013-08-15 16:05:00,
2013-08-15 12:14:00,63.1,57.2,30.09,North,360,0.0,0.0,81,0.00,,,0.00,Wunderground v.1.15,2013-08-15 16:14:00,
2013-08-15 12:24:00,64.5,58.2,30.08,North,32767,0.0,0.0,80,0.00,,,0.00,Wunderground v.1.15,2013-08-15 16:24:00,
2013-08-15 12:34:00,64.9,58.9,30.08,North,360,0.0,0.0,81,0.00,,,0.00,Wunderground v.1.15,2013-08-15 16:34:00,
2013-08-15 12:39:00,66.1,60.4,30.08,North,32767,0.0,0.0,82,0.00,,,0.00,Wunderground v.1.15,2013-08-15 16:39:00,
2013-08-15 12:49:00,66.1,59.4,30.08,North,32767,0.0,0.0,79,0.00,,,0.00,Wunderground v.1.15,2013-08-15 16:49:00,
2013-08-15 12:54:00,66.4,59.7,30.08,North,32767,0.0,0.0,79,0.00,,,0.00,Wunderground v.1.15,2013-08-15 16:54:00,
2013-08-15 13:05:00,66.0,58.9,30.08,North,32767,0.0,0.0,78,0.00,,,0.00,Wunderground v.1.15,2013-08-15 17:05:00,
2013-08-15 13:14:00,65.3,58.6,30.07,North,360,0.0,0.0,79,0.00,,,0.00,Wunderground v.1.15,2013-08-15 17:14:00,
2013-08-15 13:19:00,64.9,58.6,30.07,North,360,0.0,0.0,80,0.00,,,0.00,Wunderground v.1.15,2013-08-15 17:19:00,
2013-08-15 13:29:00,64.9,58.9,30.06,North,32767,0.0,0.0,81,0.00,,,0.00,Wunderground v.1.15,2013-08-15 17:29:00,
2013-08-15 13:39:00,65.8,59.8,30.06,North,360,0.0,0.0,81,0.00,,,0.00,Wunderground v.1.15,2013-08-15 17:39:00,
2013-08-15 13:49:00,66.4,59.7,30.06,North,32767,0.0,0.0,79,0.00,,,0.00,Wunderground v.1.15,2013-08-15 17:49:00,
2013-08-15 13:59:00,66.5,60.1,30.06,North,32767,0.0,0.0,80,0.00,,,0.00,Wunderground v.1.15,2013-08-15 17:59:00,
2013-08-15 14:05:00,66.8,60.1,30.06,North,32767,0.0,0.0,79,0.00,,,0.00,Wunderground v.1.15,2013-08-15 18:05:00,
2013-08-15 14:14:00,67.7,59.9,30.06,North,32767,0.0,0.0,76,0.00,,,0.00,Wunderground v.1.15,2013-08-15 18:14:00,
2013-08-15 14:19:00,66.9,59.8,30.05,North,32767,0.0,0.0,78,0.00,,,0.00,Wunderground v.1.15,2013-08-15 18:19:00,
2013-08-15 14:24:00,66.8,60.4,30.05,North,32767,0.0,0.0,80,0.00,,,0.00,Wunderground v.1.15,2013-08-15 18:24:00,
2013-08-15 14:34:00,67.0,60.3,30.05,North,360,0.0,0.0,79,0.00,,,0.00,Wunderground v.1.15,2013-08-15 18:34:00,
2013-08-15 14:44:00,68.1,61.0,30.05,North,32767,0.0,0.0,78,0.00,,,0.00,Wunderground v.1.15,2013-08-15 18:44:00,
2013-08-15 14:54:00,67.6,61.2,30.05,North,360,0.0,0.0,80,0.00,,,0.00,Wunderground v.1.15,2013-08-15 18:54:00,
2013-08-15 15:09:00,68.4,61.3,30.04,North,32767,0.0,0.0,78,0.00,,,0.00,Wunderground v.1.15,2013-08-15 19:09:00,
2013-08-15 15:19:00,67.6,59.8,30.04,North,32767,0.0,0.0,76,0.00,,,0.00,Wunderground v.1.15,2013-08-15 19:19:00,
2013-08-15 15:29:00,67.7,60.6,30.03,North,360,0.0,0.0,78,0.00,,,0.00,Wunderground v.1.15,2013-08-15 19:29:00,
2013-08-15 15:39:00,67.6,60.1,30.03,North,360,0.0,0.0,77,0.00,,,0.00,Wunderground v.1.15,2013-08-15 19:39:00,
2013-08-15 15:44:00,67.5,60.8,30.03,North,360,0.0,0.0,79,0.00,,,0.00,Wunderground v.1.15,2013-08-15 19:44:00,
2013-08-15 15:54:00,67.5,60.4,30.03,North,360,0.0,0.0,78,0.00,,,0.00,Wunderground v.1.15,2013-08-15 19:54:00,
2013-08-15 16:05:00,67.1,60.4,30.03,North,32767,0.0,0.0,79,0.00,,,0.00,Wunderground v.1.15,2013-08-15 20:05:00,
2013-08-15 16:14:00,67.1,61.4,30.03,North,32767,0.0,0.0,82,0.00,,,0.00,Wunderground v.1.15,2013-08-15 20:14:00,
2013-08-15 16:19:00,67.0,60.6,30.03,North,32767,0.0,0.0,80,0.00,,,0.00,Wunderground v.1.15,2013-08-15 20:19:00,
2013-08-15 16:29:00,66.6,59.9,30.02,North,32767,0.0,0.0,79,0.00,,,0.00,Wunderground v.1.15,2013-08-15 20:29:00,
2013-08-15 16:39:00,66.5,60.5,30.02,North,360,0.0,0.0,81,0.00,,,0.00,Wunderground v.1.15,2013-08-15 20:39:00,
2013-08-15 16:44:00,66.5,60.5,30.03,North,32767,0.0,0.0,81,0.00,,,0.00,Wunderground v.1.15,2013-08-15 20:44:00,
2013-08-15 16:54:00,66.8,61.1,30.02,North,32767,0.0,0.0,82,0.00,,,0.00,Wunderground v.1.15,2013-08-15 20:54:00,
2013-08-15 17:04:00,67.0,60.6,30.03,North,32767,0.0,0.0,80,0.00,,,0.00,Wunderground v.1.15,2013-08-15 21:04:00,
2013-08-15 17:14:00,66.9,60.5,30.03,North,32767,0.0,0.0,80,0.00,,,0.00,Wunderground v.1.15,2013-08-15 21:14:00,
2013-08-15 17:24:00,66.8,60.8,30.03,North,32767,0.0,0.0,81,0.00,,,0.00,Wunderground v.1.15,2013-08-15 21:24:00,
2013-08-15 17:34:00,66.2,60.5,30.03,North,32767,0.0,0.0,82,0.00,,,0.00,Wunderground v.1.15,2013-08-15 21:34:00,
2013-08-15 17:44:00,65.5,60.2,30.03,North,360,0.0,0.0,83,0.00,,,0.00,Wunderground v.1.15,2013-08-15 21:44:00,
2013-08-15 17:49:00,65.4,60.1,30.03,North,360,0.0,0.0,83,0.00,,,0.00,Wunderground v.1.15,2013-08-15 21:49:00,
2013-08-15 17:54:00,65.3,59.7,30.04,North,32767,0.0,0.0,82,0.00,,,0.00,Wunderground v.1.15,2013-08-15 21:54:00,
2013-08-15 18:04:00,64.9,59.6,30.04,North,32767,0.0,0.0,83,0.00,,,0.00,Wunderground v.1.15,2013-08-15 22:04:00,
2013-08-15 18:14:00,65.2,59.9,30.04,North,360,0.0,0.0,83,0.00,,,0.00,Wunderground v.1.15,2013-08-15 22:14:00,
2013-08-15 18:24:00,64.7,59.8,30.04,North,360,0.0,0.0,84,0.00,,,0.00,Wunderground v.1.15,2013-08-15 22:24:00,
2013-08-15 18:34:00,64.1,59.5,30.05,North,360,0.0,0.0,85,0.00,,,0.00,Wunderground v.1.15,2013-08-15 22:34:00,
2013-08-15 18:44:00,63.4,59.1,30.04,North,32767,0.0,0.0,86,0.00,,,0.00,Wunderground v.1.15,2013-08-15 22:44:00,
2013-08-15 18:54:00,63.0,58.7,30.04,North,360,0.0,0.0,86,0.00,,,0.00,Wunderground v.1.15,2013-08-15 22:54:00,
2013-08-15 19:05:00,62.5,58.6,30.05,North,32767,0.0,0.0,87,0.00,,,0.00,Wunderground v.1.15,2013-08-15 23:05:00,
2013-08-15 19:14:00,62.3,58.7,30.04,North,32767,0.0,0.0,88,0.00,,,0.00,Wunderground v.1.15,2013-08-15 23:14:00,
2013-08-15 19:19:00,62.2,58.3,30.04,North,360,0.0,0.0,87,0.00,,,0.00,Wunderground v.1.15,2013-08-15 23:19:00,
2013-08-15 19:40:00,61.1,57.8,30.05,North,360,0.0,0.0,89,0.00,,,0.00,Wunderground v.1.15,2013-08-15 23:40:00,
2013-08-15 19:45:00,60.9,57.6,30.05,North,32767,0.0,0.0,89,0.00,,,0.00,Wunderground v.1.15,2013-08-15 23:45:00,
2013-08-15 19:50:00,60.7,57.4,30.05,North,360,0.0,0.0,89,0.00,,,0.00,Wunderground v.1.15,2013-08-15 23:50:00,
2013-08-15 20:00:00,60.5,57.2,30.06,North,360,0.0,0.0,89,0.00,,,0.00,Wunderground v.1.15,2013-08-16 00:00:00,
2013-08-15 20:10:00,60.3,57.0,30.06,North,32767,0.0,0.0,89,0.00,,,0.00,Wunderground v.1.15,2013-08-16 00:10:00,
2013-08-15 20:15:00,60.2,56.9,30.06,North,32767,0.0,0.0,89,0.00,,,0.00,Wunderground v.1.15,2013-08-16 00:15:00,
2013-08-15 20:25:00,60.1,56.8,30.07,North,360,0.0,0.0,89,0.00,,,0.00,Wunderground v.1.15,2013-08-16 00:25:00,
2013-08-15 20:35:00,60.1,56.8,30.07,North,360,0.0,0.0,89,0.00,,,0.00,Wunderground v.1.15,2013-08-16 00:35:00,
2013-08-15 20:45:00,60.1,57.2,30.07,North,32767,0.0,0.0,90,0.00,,,0.00,Wunderground v.1.15,2013-08-16 00:45:00,
2013-08-15 20:55:00,60.0,57.1,30.07,North,32767,0.0,0.0,90,0.00,,,0.00,Wunderground v.1.15,2013-08-16 00:55:00,
2013-08-15 21:00:00,60.0,57.1,30.07,North,360,0.0,0.0,90,0.00,,,0.00,Wunderground v.1.15,2013-08-16 01:00:00,
2013-08-15 21:05:00,59.9,57.0,30.07,North,360,0.0,0.0,90,0.00,,,0.00,Wunderground v.1.15,2013-08-16 01:05:00,
2013-08-15 21:15:00,59.9,57.0,30.08,North,32767,0.0,0.0,90,0.00,,,0.00,Wunderground v.1.15,2013-08-16 01:15:00,
2013-08-15 21:25:00,59.8,56.9,30.08,North,32767,0.0,0.0,90,0.00,,,0.00,Wunderground v.1.15,2013-08-16 01:25:00,
2013-08-15 21:40:00,59.8,56.9,30.08,North,32767,0.0,0.0,90,0.00,,,0.00,Wunderground v.1.15,2013-08-16 01:40:00,
2013-08-15 21:45:00,59.8,56.6,30.08,North,32767,0.0,0.0,89,0.00,,,0.00,Wunderground v.1.15,2013-08-16 01:45:00,
2013-08-15 21:50:00,59.7,56.5,30.09,North,32767,0.0,0.0,89,0.00,,,0.00,Wunderground v.1.15,2013-08-16 01:50:00,
2013-08-15 22:00:00,59.7,57.4,30.09,North,32767,0.0,0.0,92,0.00,,,0.00,Wunderground v.1.15,2013-08-16 02:00:00,
2013-08-15 22:05:00,59.7,56.8,30.09,North,32767,0.0,0.0,90,0.00,,,0.00,Wunderground v.1.15,2013-08-16 02:05:00,
2013-08-15 22:15:00,59.5,56.6,30.09,North,32767,0.0,0.0,90,0.00,,,0.00,Wunderground v.1.15,2013-08-16 02:15:00,
2013-08-15 22:20:00,59.5,56.6,30.09,North,360,0.0,0.0,90,0.00,,,0.00,Wunderground v.1.15,2013-08-16 02:20:00,
2013-08-15 22:25:00,59.5,56.6,30.09,North,360,0.0,0.0,90,0.00,,,0.00,Wunderground v.1.15,2013-08-16 02:25:00,
2013-08-15 22:30:00,59.5,56.6,30.09,North,32767,0.0,0.0,90,0.00,,,0.00,Wunderground v.1.15,2013-08-16 02:30:00,
2013-08-15 22:40:00,59.5,56.6,30.09,North,32767,0.0,0.0,90,0.00,,,0.00,Wunderground v.1.15,2013-08-16 02:40:00,
2013-08-15 22:50:00,59.5,56.9,30.09,North,32767,0.0,0.0,91,0.00,,,0.00,Wunderground v.1.15,2013-08-16 02:50:00,
2013-08-15 23:00:00,59.5,56.9,30.09,North,360,0.0,0.0,91,0.00,,,0.00,Wunderground v.1.15,2013-08-16 03:00:00,
2013-08-15 23:05:00,59.5,56.9,30.09,North,32767,0.0,0.0,91,0.00,,,0.00,Wunderground v.1.15,2013-08-16 03:05:00,
2013-08-15 23:15:00,59.4,56.8,30.09,North,32767,0.0,0.0,91,0.00,,,0.00,Wunderground v.1.15,2013-08-16 03:15:00,
2013-08-15 23:20:00,59.3,56.7,30.09,North,32767,0.0,0.0,91,0.00,,,0.00,Wunderground v.1.15,2013-08-16 03:20:00,
2013-08-15 23:30:00,59.1,56.5,30.09,North,32767,0.0,0.0,91,0.00,,,0.00,Wunderground v.1.15,2013-08-16 03:30:00,
2013-08-15 23:35:00,59.0,56.7,30.09,North,32767,0.0,0.0,92,0.00,,,0.00,Wunderground v.1.15,2013-08-16 03:35:00,
2013-08-15 23:45:00,59.0,56.7,30.09,North,360,0.0,0.0,92,0.00,,,0.00,Wunderground v.1.15,2013-08-16 03:45:00,
2013-08-15 23:55:00,59.0,56.7,30.09,North,360,0.0,0.0,92,0.00,,,0.00,Wunderground v.1.15,2013-08-16 03:55:00,